Weather in Krugloye

Russia / Kurgan Oblast     54°30′01″N   64°53′46″E
temp.,
°C
wind,
m/s
gust,
m/s
humid.,
%
clouds,
%
prec.,
mm/h
press.,
hPa
HPBL,
m
8 may, sat
sat823:00+14se224125 0.0 102012
02:00+12se224499 0.0 102014
05:00+10se2248100 0.0 102015
08:00+15se2340100 0.0 1020214
11:00+19e332755 0.0 10181587
14:00+21se2324100 0.0 10172290
17:00+21ene2325100 0.0 10161793
20:00+17nne3438100 0.0 101558
9 may, sun
sun923:00+15ne4842100 0.0 1015131
02:00+14ene4944100 0.0 1014173
05:00+14ene4945100 0.0 1014145
08:00+16ne594498 0.0 1014278
11:00+21ne683086 0.0 10131230
14:00+22ene6929100 0.0 10132649
17:00+19e81243100 0.0 10141530
20:00+17nne81446100 0.0 1014709
10 may, mon
mon1023:00+16ne71359100 0.0 1016581
02:00+14nne386364 0.0 1017230
05:00+12ne411629 0.0 1018302
08:00+15ne694663 0.0 1019696
11:00+17ne783269 0.0 10201396
14:00+19ne78255 0.0 10201842
17:00+19ene672599 0.0 10211952
20:00+16ene33405 0.0 102231
11 may, tue
tue1123:00+13e22430 0.0 102411
02:00+11se11470 0.0 102410
05:00+10w22514 0.0 102410
08:00+14w2344100 0.0 1025210
11:00+19w3331100 0.0 10251256
14:00+20w4427100 0.0 10231754
17:00+21wnw3527100 0.0 10232018
20:00+17nnw5954100 0.0 1023332
12 may, wed
wed1223:00+14n356968 0.1 1022126
02:00+13nnw597886 0.1 1023507
05:00+9nnw6119027 0.2 1024461
08:00+10nnw710670 0.0 1025827
11:00+14n8105114 0.0 10241421
14:00+17n793948 0.0 10241876
17:00+18n792897 0.0 10242185
20:00+14n3742100 0.0 1025185